Location: Brede
(50.9167°N, 0.6000°E)
Time: 11:43:49
(UTC+00:00)

S-56A Canister/Altair - All Passes

Search period start: 30 November 2020 00:00
Search period end: 10 December 2020 00:00
Orbit: 633 x 2500 km, 38.9° (Epoch: 29 November)

Date Brightness Start Highest point End Pass type
(mag) Time Alt. Az. Time Alt. Az. Time Alt. Az.
30 Nov - 16:46:01 10° S 16:51:52 15° SE 16:56:58 10° ESE visible
30 Nov - 18:46:07 10° SW 18:55:42 29° SSE 19:02:47 10° ESE visible
30 Nov - 20:50:31 10° WSW 20:59:30 36° S 21:05:45 10° ESE visible
30 Nov - 22:56:14 10° WSW 23:02:33 25° SSW 23:07:18 10° SSE visible
01 Dec - 16:13:37 10° SSE 16:18:55 13° SE 16:23:40 10° ESE daylight
01 Dec - 18:12:48 10° SSW 18:22:45 29° SSE 18:30:13 10° ESE visible
01 Dec - 20:17:01 10° WSW 20:26:42 37° S 20:33:26 10° ESE visible
01 Dec - 22:22:44 10° WSW 22:29:58 28° SSW 22:35:15 10° SE visible
02 Dec - 15:41:33 10° SSE 15:45:57 12° SE 15:50:00 10° ESE daylight
02 Dec - 17:39:31 10° SSW 17:49:46 28° SSE 17:57:36 10° ESE visible
02 Dec - 19:43:29 10° WSW 19:53:50 38° S 20:01:04 10° ESE visible
02 Dec - 21:49:12 10° WSW 21:57:20 32° SSW 22:03:08 10° SE visible
02 Dec - 23:56:42 10° WSW 23:59:37 13° SW 00:02:11 10° SSW night (unlit)
03 Dec - 15:10:09 10° SSE 15:12:58 11° SE 15:15:40 10° ESE daylight
03 Dec - 17:06:18 10° SSW 17:16:44 27° SSE 17:24:54 10° ESE visible
03 Dec - 19:09:56 10° SW 19:20:55 39° S 19:28:38 10° ESE visible
03 Dec - 21:15:37 10° WSW 21:24:37 35° SSW 21:30:56 10° SE visible
03 Dec - 23:22:36 10° WSW 23:27:08 16° SW 23:30:52 10° S night (unlit)
04 Dec - 16:33:10 10° SSW 16:43:39 26° SSE 16:52:06 10° E visible
04 Dec - 18:36:24 10° SW 18:47:55 39° S 18:56:10 10° ESE visible
04 Dec - 20:42:00 10° WSW 20:51:51 38° SSW 20:58:42 10° SE visible
04 Dec - 22:48:45 10° WSW 22:54:37 20° SW 22:59:14 10° S visible
05 Dec - 16:00:07 10° SSW 16:10:33 25° SSE 16:19:12 10° E daylight
05 Dec - 18:02:53 10° SW 18:14:52 39° SSE 18:23:37 10° ESE visible
05 Dec - 20:08:21 10° WSW 20:19:00 40° S 20:26:24 10° SE visible
05 Dec - 22:14:59 10° W 22:22:02 23° SSW 22:27:24 10° SSE visible
06 Dec - 15:27:11 10° S 15:37:26 24° SE 15:46:11 10° E daylight
06 Dec - 17:29:25 10° SW 17:41:45 39° SSE 17:51:00 10° ESE visible
06 Dec - 19:34:42 10° WSW 19:46:05 42° S 19:54:02 10° ESE visible
06 Dec - 21:41:13 10° W 21:49:24 27° SSW 21:55:25 10° SSE visible
07 Dec - 14:54:23 10° S 15:04:18 22° SE 15:13:01 10° E daylight
07 Dec - 16:55:59 10° SW 17:08:35 38° SSE 17:18:19 10° E visible
07 Dec - 19:01:02 10° WSW 19:13:05 44° S 19:21:37 10° ESE visible
07 Dec - 21:07:28 10° W 21:16:42 31° SSW 21:23:21 10° SSE visible
08 Dec - 14:21:46 10° S 14:31:10 20° SE 14:39:42 10° E daylight
08 Dec - 16:22:38 10° SW 16:35:23 38° SSE 16:45:33 10° E visible
08 Dec - 18:27:24 10° WSW 18:40:00 45° S 18:49:07 10° ESE visible
08 Dec - 20:33:44 10° W 20:43:54 34° SSW 20:51:11 10° SE visible
08 Dec - 22:42:18 10° WSW 22:46:13 13° SW 22:49:36 10° SSW visible
09 Dec - 13:49:20 10° S 13:58:02 18° SE 14:06:11 10° E daylight
09 Dec - 15:49:22 10° SW 16:02:09 36° SSE 16:12:42 10° E daylight
09 Dec - 17:53:46 10° WSW 18:06:52 46° S 18:16:34 10° ESE visible
09 Dec - 19:59:58 10° W 20:11:02 37° SSW 20:18:57 10° SE visible
09 Dec - 22:07:51 10° W 22:13:39 17° SW 22:18:24 10° S visible
